Location: Appingedam
(53.3222°N, 6.8488°E)
Time: 08:12:28
(UTC+00:00)

BlueWalker 3 - Pass Details

Date: 15 May 2026
Orbit: 447 x 457 km, 53.2° (Epoch: 5 June)

Event Time Altitude Azimuth Distance (km) Brightness Sun altitude
Exits shadow 23:05:21 12° 101° (E) 1,485 4.2 -17.4°
Drops below altitude 10° 23:05:41 10° 97° (E) 1,574 4.3 -17.5°
Sets 23:08:17 0° 77° (ENE) 2,450 5.5 -17.5°
